SCP
1 1 1 1 1 1 1 1 1 1 1 1 1 1 1 1 1 1 1 2 1 1 1 1 1 1 1 1 1 1 2 2 3 3 4 5 5 3 3 3 4 4 3 3
0 1 1 1 1 1 1 1 1 1 1 1 1 1 1 1 1 1 1 1 2 1 1 1 1 1 1 1 1 1 1 2 3 3 3 4 4 3 3 4 4 4 3 3
0 0 1 1 1 1 1 1 1 1 1 1 1 1 1 1 1 1 1 1 2 2 1 1 1 1 1 1 1 1 1 3 4 3 3 3 3 3 3 4 5 5 4 3
0 0 0 0 1 1 1 1 0 1 1 1 1 1 2 1 1 1 1 1 2 2 1 1 1 1 1 1 2 2 3 5 7 6 3 3 3 3 4 4 5 5 4 3
0 0 0 0 1 1 1 1 0 0 1 1 2 2 2 2 1 1 1 1 1 1 1 1 1 2 2 1 3 5 6 10 12 9 6 4 4 4 4 4 4 4 3 3
0 0 0 1 1 1 1 1 1 1 1 2 3 2 2 2 2 2 2 1 1 1 1 1 1 2 2 2 2 4 7 11 14 13 8 5 5 5 5 4 4 3 3 3
0 0 0 1 1 1 1 1 1 1 2 3 3 3 3 3 2 2 2 1 1 1 1 1 1 2 2 1 1 1 4 8 12 12 8 5 4 4 4 4 4 3 3 3
0 0 0 1 1 1 1 1 2 2 2 3 4 4 4 3 3 2 2 1 1 1 1 1 1 1 1 1 1 1 2 4 7 7 5 4 3 3 3 3 3 3 3 3
1 1 1 1 1 1 1 2 2 2 2 3 4 4 4 3 3 2 2 2 1 1 1 1 0 0 0 0 1 1 2 2 3 3 2 2 2 2 2 3 3 3 3 3
1 1 2 2 2 1 1 1 1 2 2 3 3 3 3 3 2 2 2 2 1 1 1 0 0 0 0 0 1 1 1 1 1 1 1 1 1 1 2 2 3 3 3 3
1 1 2 3 2 2 1 1 1 1 2 2 2 2 2 2 2 2 2 2 2 1 1 0 0 0 0 0 1 1 1 1 0 0 0 0 0 0 1 2 2 2 3 3
1 1 2 2 2 2 1 1 1 2 2 2 2 2 2 2 2 1 2 2 2 2 1 1 0 0 0 0 0 0 0 0 0 0 0 0 0 0 0 1 1 1 2 2
1 1 1 2 2 2 2 2 2 2 2 1 2 2 2 2 2 2 2 2 2 2 2 1 0 0 0 0 0 0 0 0 0 0 0 0 0 0 0 0 0 1 1 1
1 2 1 1 1 1 1 2 2 3 2 2 2 3 3 3 2 2 2 2 2 2 2 1 1 0 0 0 0 0 0 0 0 0 0 0 0 0 0 0 0 0 0 0
2 2 1 1 1 1 1 2 2 3 3 3 3 3 3 3 3 3 3 3 2 2 2 1 1 0 0 0 0 0 0 0 0 0 0 0 0 0 0 0 1 1 0 0
1 1 1 1 1 1 1 1 1 2 2 3 3 3 3 3 4 4 4 3 3 2 2 1 1 0 0 0 0 0 0 0 0 0 0 0 0 0 0 0 0 1 1 1
1 1 1 1 1 1 1 1 1 1 2 3 3 2 3 3 4 4 4 4 3 2 2 1 1 1 0 0 0 0 0 0 0 0 0 0 0 0 0 0 0 0 0 1
0 0 1 1 1 1 1 1 1 1 2 2 3 2 2 3 4 4 4 4 3 2 2 1 1 1 1 0 0 0 0 0 0 0 0 0 0 0 0 0 0 0 0 0
0 0 0 1 1 1 1 1 1 1 2 2 3 2 2 2 3 4 4 4 3 2 2 1 1 1 1 1 0 0 0 0 0 0 0 0 0 0 0 0 0 0 0 0
0 0 0 0 0 1 1 1 1 1 2 3 3 2 2 3 4 5 4 3 3 2 2 1 1 1 1 0 0 0 0 0 0 0 0 0 0 0 0 0 0 0 0 0
0 0 0 0 0 0 0 0 0 1 2 4 5 3 3 4 5 5 4 3 2 1 1 1 1 1 0 0 0 0 0 0 0 0 0 0 0 0 0 0 0 0 0 0
0 0 0 0 0 0 0 0 0 1 4 6 6 4 4 5 5 4 3 2 1 1 1 1 1 0 0 0 0 0 0 0 0 0 0 0 0 0 0 0 0 0 0 0
0 0 0 0 0 0 0 0 0 2 6 7 5 4 4 5 4 3 2 1 1 0 0 0 0 0 0 0 0 0 0 0 0 0 0 0 0 0 0 0 0 0 0 0
0 0 0 0 0 0 0 0 1 4 5 5 4 3 3 3 2 1 1 1 0 0 0 0 0 0 0 0 0 0 0 0 0 0 0 0 0 0 0 0 0 0 0 0
0 0 0 0 0 0 0 1 2 3 3 3 2 1 1 1 1 1 0 0 0 0 0 0 0 0 0 0 0 0 0 0 0 0 0 0 0 0 0 0 0 0 0 0
0 0 0 0 0 0 1 2 3 2 2 1 1 1 0 0 0 0 0 0 0 0 0 0 0 0 0 0 0 0 0 0 0 0 0 0 0 0 0 0 0 0 0 0
0 0 0 0 0 0 1 2 2 2 1 1 1 0 0 0 0 0 0 0 0 0 0 0 0 0 0 0 0 0 0 0 0 0 0 0 0 0 0 0 0 0 0 0
Wind_Speed
2 2 0 2 3 1 3 5 6 6 6 5 4 5 4 4 4 4 4 4 5 5 3 2 2 3 3 3 3 4 4 4 3 3 3 3 3 3 3 3 3 3 3 3
2 2 2 3 3 1 2 3 5 6 2 2 3 4 4 4 5 5 4 4 5 5 4 4 3 3 3 3 3 4 5 4 3 2 3 3 3 3 3 3 2 3 3 3
2 2 4 3 3 1 2 2 5 5 5 4 4 5 5 4 4 4 5 5 5 5 4 4 3 3 4 3 3 4 4 3 3 3 3 3 4 4 3 3 3 2 3 3
1 2 1 4 1 4 6 3 2 4 4 6 5 5 4 4 4 3 3 5 5 3 3 2 2 2 3 3 3 3 3 3 3 3 3 3 3 3 3 3 3 3 3 3
2 3 2 2 2 1 4 1 0 4 4 5 5 4 2 1 3 4 4 5 5 4 4 3 3 3 3 3 3 3 3 2 2 3 3 2 3 4 3 3 3 2 3 3
2 3 4 3 4 1 5 1 2 3 5 4 5 4 2 1 2 2 4 4 4 3 4 3 3 3 4 3 3 2 2 2 2 3 3 3 3 3 3 3 3 3 2 2
3 2 3 3 5 1 3 4 2 2 4 4 4 5 4 3 3 3 4 4 4 4 4 3 3 4 4 3 2 2 2 1 1 2 3 3 2 2 3 3 3 2 2 2
2 2 4 4 2 2 3 1 2 1 2 3 3 3 4 4 4 4 4 4 4 3 2 2 3 4 3 2 2 1 1 2 2 2 2 2 2 2 2 3 3 2 2 1
2 3 2 1 1 1 3 3 1 2 1 4 5 4 4 4 4 4 4 3 3 3 2 2 3 4 4 2 2 2 2 1 1 1 0 1 2 2 2 3 3 2 2 2
2 1 2 3 3 4 3 3 1 2 2 4 5 5 4 4 4 3 3 3 2 3 2 1 2 2 3 2 2 3 2 1 0 0 1 0 1 2 2 3 3 3 3 3
1 1 3 4 4 4 3 3 3 2 3 4 6 5 4 4 3 3 3 2 3 3 2 2 2 2 2 2 3 2 1 1 0 0 0 0 0 1 2 3 5 5 5 4
2 3 2 2 2 2 2 1 2 2 2 2 5 5 4 3 2 2 2 2 3 2 2 2 2 2 2 2 3 3 1 0 0 0 0 0 0 1 2 2 4 6 6 5
2 2 2 1 1 2 1 2 1 2 3 3 4 5 5 3 2 2 2 2 3 2 2 2 2 1 1 1 2 3 2 2 1 1 1 1 1 1 1 2 2 2 3 5
2 2 1 0 0 1 1 2 2 2 3 4 4 4 4 3 2 2 1 2 2 2 2 2 2 1 1 1 2 2 2 2 1 1 1 1 1 2 2 1 1 2 2 3
2 1 2 1 1 2 2 3 4 3 3 2 3 3 4 3 2 1 1 2 2 2 1 2 2 1 1 1 2 2 1 1 1 1 1 1 1 1 1 2 2 1 1 1
1 2 3 2 2 3 3 3 4 3 3 3 3 2 2 2 1 1 1 2 3 2 1 2 2 2 2 1 1 1 1 2 1 1 1 0 0 1 1 1 1 2 2 2
3 3 3 3 3 3 3 2 3 2 3 3 2 2 3 2 2 1 1 1 2 2 2 2 2 2 2 2 2 2 1 1 2 1 1 1 1 1 2 2 2 2 3 3
2 2 2 2 2 3 4 4 4 3 2 2 3 3 3 2 1 0 0 0 1 0 1 2 2 1 1 2 2 2 2 1 1 2 2 2 2 2 2 2 3 3 2 1
3 3 4 4 4 3 3 4 3 3 3 3 4 3 1 1 0 1 1 1 0 1 3 3 2 1 2 3 2 1 1 2 2 1 2 2 3 2 2 2 2 2 2 2
4 4 5 5 5 4 4 3 3 3 2 2 3 2 2 1 1 0 0 0 2 3 3 2 1 2 2 2 1 1 1 2 2 2 2 2 2 2 2 2 2 2 2 2
3 3 4 4 4 4 3 3 3 2 1 1 1 1 1 1 1 1 1 1 3 2 1 1 1 1 1 1 1 1 1 1 1 2 2 2 2 2 2 2 2 2 2 2
2 3 3 3 4 3 3 3 3 2 1 1 2 1 1 1 2 2 1 1 2 1 1 0 1 1 1 1 1 1 1 1 1 1 2 2 2 2 2 3 3 3 2 2
2 2 3 2 2 1 2 3 3 3 2 2 2 2 1 1 0 0 1 2 1 1 1 1 1 1 1 0 0 1 1 1 1 2 2 2 2 2 2 2 2 2 2 2
1 1 1 1 2 2 2 3 2 2 2 2 1 1 1 1 2 1 1 2 2 2 1 2 2 2 1 0 0 1 1 1 1 1 1 1 1 1 1 1 1 1 1 1
1 1 1 1 1 1 1 2 2 3 3 2 3 2 1 0 0 1 1 1 2 2 2 2 3 3 1 0 1 1 1 0 0 1 1 1 1 1 1 2 2 2 2 1
1 0 0 1 1 1 0 1 1 1 2 2 2 2 2 2 2 2 2 2 2 2 1 2 2 2 1 1 1 1 1 1 1 1 2 2 2 2 2 2 2 1 1 1
1 1 1 1 1 1 1 1 0 0 1 1 1 2 2 2 2 2 2 2 2 2 2 1 1 2 2 1 2 2 1 1 1 1 2 2 2 2 2 2 2 1 1 2
Wind_Direction
220 223 213 302 291 215 167 180 178 184 173 201 189 156 146 137 134 126 135 136 142 142 141 133 136 147 144 146 148 143 133 133 151 163 153 143 146 150 144 145 151 147 136 139
344 348 6 342 322 222 161 147 138 128 154 203 153 120 120 135 139 141 151 158 156 152 145 149 161 165 156 156 158 145 142 152 159 151 152 157 161 153 143 145 147 137 143 145
247 302 24 343 312 161 117 104 149 170 183 153 127 145 155 161 155 161 157 145 140 146 152 163 167 162 164 170 157 147 152 159 162 158 165 178 170 156 162 161 142 139 155 152
151 58 196 241 304 117 116 96 133 138 151 153 155 164 158 164 157 153 151 139 131 130 143 157 166 150 152 149 140 145 156 165 162 162 179 186 170 170 177 169 161 166 178 177
130 152 218 277 305 114 136 116 192 148 148 139 122 92 65 143 148 160 156 151 150 156 151 140 141 143 138 141 143 140 154 175 178 173 179 183 187 187 183 169 172 179 180 178
146 157 203 245 294 312 107 139 269 149 153 148 126 126 221 181 107 120 125 128 124 122 117 126 142 132 125 131 124 142 172 179 185 182 183 194 205 195 181 174 182 180 187 190
165 180 233 285 306 19 143 210 233 160 154 148 160 179 182 146 119 128 125 126 127 123 123 142 145 126 124 129 152 197 194 178 177 188 193 193 194 190 172 171 168 174 188 205
145 153 245 321 16 105 183 196 151 130 149 141 139 129 128 123 121 122 121 125 127 125 134 153 146 135 131 155 193 182 165 165 174 184 198 182 177 189 174 169 171 189 193 231
157 191 248 323 106 137 132 117 117 131 155 143 133 136 133 128 134 138 137 140 140 142 139 152 156 148 152 192 175 143 123 134 186 194 214 181 177 184 180 178 182 198 198 216
61 18 5 25 50 58 75 91 104 123 127 127 129 130 127 126 130 127 127 137 137 136 137 168 170 156 167 174 146 126 123 102 7 326 317 321 199 193 188 190 190 195 203 214
77 331 15 23 29 22 23 51 67 67 107 129 125 125 127 126 127 136 137 138 138 144 153 178 164 154 158 146 132 119 122 120 347 357 23 349 306 222 206 209 197 194 204 202
206 222 179 260 327 13 26 58 106 101 86 110 127 132 122 126 134 135 137 137 137 135 143 161 152 150 149 139 139 136 138 191 233 72 159 191 157 344 340 260 234 217 209 199
181 198 165 186 350 18 39 47 85 116 131 130 131 134 134 138 134 122 121 135 152 157 159 147 134 143 165 151 145 150 172 197 197 199 202 206 196 191 273 337 345 247 220 207
81 86 81 85 253 23 48 36 59 82 107 125 131 132 131 120 119 126 147 172 155 141 136 132 130 153 190 149 147 160 180 200 197 205 219 218 219 220 211 208 262 294 281 227
17 73 157 146 74 61 78 78 69 58 67 87 106 115 120 122 133 160 151 127 112 115 134 134 137 203 206 155 162 176 181 204 208 206 215 222 227 228 223 219 217 228 251 280
36 57 64 62 59 46 50 68 78 62 65 75 89 95 107 119 118 122 126 124 119 140 175 157 175 216 198 170 178 186 203 231 217 192 200 218 227 233 237 228 210 206 209 206
57 31 38 46 49 42 43 60 86 88 74 76 91 97 91 87 80 76 71 109 145 174 181 179 214 229 207 188 189 203 209 223 222 184 187 205 217 228 230 225 213 213 223 211
75 72 83 89 78 62 57 55 62 64 66 65 63 72 84 89 99 158 210 62 86 83 264 242 224 220 213 210 206 204 202 204 202 198 207 221 236 239 226 213 210 213 228 216
60 61 57 56 59 70 73 68 63 51 47 61 67 57 55 39 315 314 10 44 65 260 271 271 245 211 226 235 218 203 206 211 213 217 218 227 239 246 228 209 209 212 204 188
50 55 67 63 54 56 62 71 73 57 38 52 60 46 29 341 267 237 107 226 239 237 248 264 249 232 228 220 209 207 212 216 214 223 229 224 230 229 216 202 205 209 203 193
36 42 61 61 51 47 46 52 69 59 19 39 51 6 288 304 339 8 38 323 291 280 272 272 249 233 217 194 179 199 218 224 218 223 230 230 225 219 211 205 205 203 200 196
38 46 52 63 61 45 30 35 41 34 20 22 20 10 21 17 359 354 349 257 268 302 331 317 281 229 215 217 196 231 245 240 229 221 230 221 205 208 212 210 208 204 195 189
45 49 52 70 81 48 21 24 26 25 20 18 14 2 348 298 269 68 328 304 305 337 1 337 326 334 326 328 278 268 269 254 230 222 221 208 198 203 207 209 206 199 197 185
52 52 68 75 68 48 13 344 351 6 14 4 348 343 359 2 342 318 270 296 332 350 355 330 336 330 318 290 288 299 292 281 252 217 190 157 127 97 114 128 116 99 115 124
73 45 48 66 65 336 313 343 6 7 8 356 341 338 341 119 160 310 330 347 354 352 336 324 331 327 323 303 282 291 293 297 134 122 102 106 110 110 106 99 95 90 92 96
120 138 197 226 227 259 295 37 17 355 12 6 352 353 -0 10 22 11 356 357 358 358 350 340 347 348 353 359 5 35 60 56 62 82 108 113 104 97 94 94 98 101 98 94
67 61 49 13 348 355 15 39 46 12 26 31 347 337 355 7 10 5 2 355 353 2 10 13 9 8 15 24 37 45 46 54 63 82 89 94 95 93 94 96 95 87 88 95